Weather History for Cape Newenham, AK

Change the Weather History Date:

Thursday, July 4, 2013

  Actual Average Record
Temperature  
Mean Temperature 40 °F -  
Max Temperature 44 °F 51 °F 61 °F (1997)
Min Temperature 38 °F 43 °F 38 °F (2013)
Degree Days  
Heating Degree Days 24    
Moisture  
Dew Point 40 °F    
Average Humidity 95    
Maximum Humidity 100    
Minimum Humidity 88    
Precipitation  
Precipitation 0.00 in - - ()
Sea Level Pressure  
Sea Level Pressure 29.98 in    
Wind  
Wind Speed 10 mph (SSW)    
Max Wind Speed 21 mph    
Max Gust Speed 26 mph    
Visibility 6 miles    
Events Fog , Rain    
Averages and records for this station are not official NWS values.
T = Trace of Precipitation, MM = Missing Value Source: NWS Daily Summary

Daily Weather History Graph

Daily Weather History Graph

Search for Another Location

Airport:

Trip Planner

Search our weather history database for the weather conditions in past years. The results will help you decide how hot, cold, wet, or windy it might be!

Date:

Astronomy

Jul. 04, 2013 Rise Set
Actual Time 5:48 AM AKDT 11:56 PM AKDT
Civil Twilight 4:31 AM AKDT 1:12 AM AKDT
Nautical Twilight Sun does not rise Sun does not rise
Astronomical Twilight Sun does not rise Sun does not rise
Moon 3:37 AM AKDT (7/4) 8:52 PM AKDT (7/4)
Length of Visible Light 20h 41m
Length of Day
18h 08m
Waning Crescent, 10% of the Moon is Illuminated
Jul 4
Waning Crescent
Jul 7
New
Jul 15
First Quarter
Jul 22
Full
Jul 29
Last Quarter

Hourly Weather History & Observations

Time (AKDT) Temp. Windchill Dew Point Humidity Pressure Visibility Wind Dir Wind Speed Gust Speed Precip Events Conditions
12:55 AM 40.8 °F 35.0 °F 40.8 °F 100% 29.84 in 0.8 mi West 9.2 mph - N/A Fog Fog
1:55 AM 40.5 °F 35.1 °F 40.5 °F 100% 29.86 in 0.5 mi WSW 8.1 mph - N/A Fog Fog
2:55 AM - - - N/A% 29.88 in 1.2 mi West 4.6 mph - N/A   Overcast
3:55 AM 40.1 °F 33.2 °F 40.3 °F 100% 29.89 in 4.0 mi West 11.5 mph - N/A   Mostly Cloudy
4:55 AM 39.4 °F 33.2 °F 39.4 °F 100% 29.90 in 2.0 mi WSW 9.2 mph - N/A Fog Patches of Fog
5:55 AM 38.8 °F 31.2 °F 39.0 °F 100% 29.92 in 0.2 mi SW 12.7 mph - N/A Fog , Rain Light Rain
6:55 AM 40.1 °F 34.1 °F 40.3 °F 100% 29.94 in 1.5 mi SSW 9.2 mph - N/A Fog , Rain Light Rain Showers
7:55 AM - - - N/A% 29.96 in 2.0 mi South 8.1 mph - N/A Fog , Rain Light Rain Showers
8:55 AM 39.7 °F 32.7 °F 39.9 °F 100% 29.97 in 1.0 mi SSW 11.5 mph - N/A Fog , Rain Light Rain Showers
9:55 AM 40.6 °F 33.0 °F 40.1 °F 98% 29.98 in 8.0 mi SSW 13.8 mph - N/A   Mostly Cloudy
10:55 AM 41.0 °F 33.9 °F 40.5 °F 98% 29.98 in 4.0 mi SSW 12.7 mph 21.9 mph N/A   Mostly Cloudy
11:55 AM 40.3 °F 32.2 °F 39.9 °F 99% 29.99 in 10.0 mi SSW 15.0 mph - N/A   Mostly Cloudy
12:55 PM 43.2 °F 36.6 °F 39.9 °F 88% 30.00 in 10.0 mi South 12.7 mph - N/A   Mostly Cloudy
1:55 PM 43.0 °F 36.4 °F 41.2 °F 93% 30.01 in 10.0 mi SSW 12.7 mph - N/A   Overcast
2:55 PM 43.7 °F 35.2 °F 41.4 °F 91% 30.01 in 10.0 mi South 20.7 mph 26.5 mph N/A   Mostly Cloudy
4:55 PM 43.9 °F 40.5 °F 40.6 °F 88% 30.04 in 10.0 mi SSE 5.8 mph 16.1 mph N/A   Mostly Cloudy
5:55 PM 43.2 °F 36.2 °F 40.5 °F 90% 30.04 in 10.0 mi South 13.8 mph - N/A   Mostly Cloudy
6:55 PM 42.1 °F 33.9 °F 40.1 °F 93% 30.04 in 10.0 mi South 17.3 mph 20.7 mph N/A   Scattered Clouds
7:55 PM 42.8 °F 37.0 °F 40.1 °F 90% 30.04 in 10.0 mi South 10.4 mph - N/A   Mostly Cloudy
8:55 PM 43.0 °F 37.2 °F 40.1 °F 90% 30.04 in 10.0 mi South 10.4 mph - N/A   Mostly Cloudy
9:55 PM 41.9 °F 35.9 °F 39.9 °F 93% 30.04 in 10.0 mi South 10.4 mph - N/A   Partly Cloudy
10:55 PM 41.2 °F 35.0 °F 39.7 °F 95% 30.05 in 10.0 mi SSW 10.4 mph - N/A   Mostly Cloudy
11:55 PM 40.5 °F 34.1 °F 39.7 °F 97% 30.05 in 10.0 mi SSW 10.4 mph - N/A   Overcast